Regional Weather Roundup
Issued by NWS Midland/Odessa, TX

Skip options and go directly to product.
Home | Oldest Version | Previous Version | Current Version | All | Graphics & Text | Save Text | Print | Product List | Glossary On

Skip product version selection by date and time.   
959
ASUS44 KMAF 071310
RWRMAF
MIDLAND AREA WEATHER ROUNDUP
NATIONAL WEATHER SERVICE MIDLAND TX
700 AM CST SUN FEB 07 2016

...IN SOUTHWEST TEXAS AND SOUTHEAST NEW MEXICO...

CITY           SKY/WX    TMP DP  RH WIND       PRES   REMARKS
ALPINE         PTCLDY    44   2  18 SW10      30.28S WCI  38
ANDREWS        FAIR      37   9  30 W10       30.16S WCI  30
ARTESIA        CLOUDY    32  12  43 W10       30.18S WCI  24
BIG SPRING     PTCLDY    32  16  52 SE6       30.19R WCI  26
CARLSBAD       CLOUDY    27  13  55 CALM      30.17F
DRYDEN           N/A     29  12  49 W3        30.20S
FORT STOCKTON  CLOUDY    42  11  28 SW13      30.19R WCI  35
GUAD PASS      CLOUDY    32   2  27 SW24      30.22R WCI  19
HOBBS          CLEAR     37  10  32 W10       30.17R WCI  30
MARFA          CLOUDY    27   6  41 SE3       30.29R
MIDLAND AIRPK  PTCLDY    38  15  40 W6        30.17R WCI  33
MIDLAND INTL   CLOUDY    36  15  42 SW8       30.17R WCI  30
ODESSA         CLOUDY    35  14  42 W7        30.18R WCI  29
PECOS          CLOUDY    36  11  35 W7        30.19S WCI  31
PRESIDIO       FAIR      36   9  31 CALM      30.28R
SEMINOLE       CLOUDY    31  12  46 NW6       30.16S WCI  25
SNYDER           N/A     31  19  61 SW9       30.15S WCI  22
WINK           CLOUDY    24  13  62 N7        30.18R WCI  16
$$
...OTHER STATIONS IN TEXAS...

CITY           SKY/WX    TMP DP  RH WIND       PRES   REMARKS
ABILENE        CLEAR     40  19  43 S7        30.14F WCI  35
AMARILLO       CLOUDY    30  13  49 NW13      30.14R WCI  20
AUSTIN         CLOUDY    29  27  92 CALM      30.29S
BROWNSVILLE    CLEAR     40  31  70 CALM      30.32R
CORPUS CHRISTI CLOUDY    37  33  85 CALM      30.30S
DALLAS FTW     CLEAR     33  29  85 S7        30.22S WCI  27
DEL RIO        CLOUDY    36  20  52 E7        30.25S WCI  30
EL PASO        MOCLDY    28   8  43 N5        30.28R WCI  23
HOUSTON INT    PTCLDY    35  34  96 CALM      30.29F
LUBBOCK        CLOUDY    29  14  53 W9        30.10R WCI  20
SAN ANGELO     CLOUDY    41  19  41 SW10      30.19R WCI  35
SAN ANTONIO    PTCLDY    31  26  82 NW6       30.29S WCI  25
WACO           CLEAR     32  30  92 S7        30.25F WCI  26
WICHITA FALLS  NOT AVBL
$$
...OTHER LOCATIONS IN NEW MEXICO...

CITY           SKY/WX    TMP DP  RH WIND       PRES   REMARKS
ALAMAGORDO     CLOUDY    25   9  50 SE6       30.28S WCI  18
ALBUQUERQUE    CLOUDY    33  14  45 N8        30.34R WCI  26
CANNON AFB     CLOUDY    30  17  58 NW10      30.12R WCI  21
CLOVIS         CLOUDY    30  16  55 NW8       30.13R WCI  23
HOLLOMAN AFB   CLOUDY    27   6  40 N7        30.27F WCI  19
ROSWELL        CLOUDY    25  13  60 CALM      30.18R
RUIDOSO          N/A     32   7  34 E8        30.28R WCI  25
SANTA FE       CLOUDY    26  14  60 NW12      30.28S WCI  16
TRUTH OR CONSE CLEAR     28   8  43 CALM      30.31S
TUCUMCARI      CLOUDY    26  17  68 CALM      30.14R
$$

USA.gov is the U.S. government's official web portal to all federal, state and local government web resources and services.